,,PA_Meas_PMT16A,,PR_Meas_QMR101_102,,RH_Meas_QMH101,,SR_Meas_QMS101,,TA_Meas_QMH101,,GenWind,,GenWind,
time,status,PA,status,PR,status,RH,status,SR,status,TA,status,DirAvg,status,SpdAvg,
2017-02-20, 00:00:04,VALID,914.935,VALID,0,VALID,58.8756,VALID,107.656,VALID,27.2261,VALID,99,VALID,0,
2017-02-20, 00:01:04,VALID,914.961,VALID,0,VALID,59.3407,VALID,116.681,VALID,27.2281,VALID,65,VALID,0,
2017-02-20, 00:02:04,VALID,914.984,VALID,0,VALID,61.8488,VALID,144.723,VALID,27.1284,VALID,79,VALID,0.0148437,
2017-02-20, 00:03:04,VALID,915.002,VALID,0,VALID,59.6837,VALID,174.055,VALID,27.0523,VALID,107,VALID,0,
2017-02-20, 00:04:04,VALID,915.044,VALID,0,VALID,62.7636,VALID,131.186,VALID,26.9917,VALID,101,VALID,0,
2017-02-20, 00:05:04,VALID,915.008,VALID,0,VALID,60.164,VALID,116.036,VALID,27.0112,VALID,143,VALID,0,
2017-02-20, 00:06:04,VALID,915.025,VALID,0,VALID,59.3178,VALID,104.433,VALID,27.0893,VALID,139,VALID,0,
2017-02-20, 22:44:04,VALID,915.099,VALID,0,INVALID,127.372,VALID,99.1682,VALID,20.5204,INVALID,360,VALID,0,
2017-02-20, 22:45:04,VALID,915.078,VALID,0,INVALID,127.403,VALID,105.185,VALID,20.5609,VALID,355,VALID,0,
2017-02-20, 22:46:04,VALID,915.064,VALID,0,INVALID,127.288,VALID,112.491,VALID,20.6194,VALID,355,VALID,0,
2017-02-20, 22:47:04,VALID,915.051,VALID,0,INVALID,127.433,VALID,116.896,VALID,20.5804,VALID,349,VALID,0,
2017-02-20, 22:48:04,VALID,915.062,VALID,0,INVALID,127.662,VALID,120.442,VALID,20.4829,VALID,342,VALID,0,
2017-02-20, 22:49:04,VALID,915.052,VALID,0,INVALID,127.471,VALID,123.235,VALID,20.5024,INVALID,360,VALID,0,
2017-02-20, 22:50:04,VALID,915.046,VALID,0,INVALID,127.403,VALID,125.491,VALID,20.5399,VALID,342,VALID,0,
2017-02-20, 22:51:04,VALID,915.024,VALID,0,INVALID,127.509,VALID,127.318,VALID,20.5219,VALID,350,VALID,0,
2017-02-20, 22:52:04,VALID,915.043,VALID,0,INVALID,127.502,VALID,128.714,VALID,20.5024,INVALID,360,VALID,0,
2017-02-20, 22:53:04,VALID,915.017,VALID,0,INVALID,127.342,VALID,129.359,VALID,20.5804,VALID,357,VALID,0,
2017-02-20, 22:54:04,VALID,915.051,VALID,0,INVALID,127.616,VALID,127.64,VALID,20.5024,VALID,11,VALID,0,
2017-02-20, 22:55:04,VALID,915.03,VALID,0.2,INVALID,127.768,VALID,126.136,VALID,20.4033,VALID,2,VALID,0,
2017-02-20, 22:56:04,VALID,915.058,VALID,0,INVALID,127.54,VALID,127.425,VALID,20.4228,VALID,344,VALID,0,
2017-02-20, 22:57:04,VALID,915.003,VALID,0,INVALID,127.54,VALID,128.285,VALID,20.4033,VALID,359,VALID,0,
2017-02-20, 22:58:04,VALID,915.037,VALID,0,INVALID,127.479,VALID,129.037,VALID,20.4439,VALID,22,VALID,0,
2017-02-20, 22:59:04,VALID,915.034,VALID,0,INVALID,127.784,VALID,130.971,VALID,20.3464,VALID,23,VALID,0,
2017-02-20, 23:00:04,VALID,915.02,VALID,0,INVALID,127.868,VALID,133.012,VALID,20.2879,VALID,6,VALID,0,
2017-02-20, 23:01:04,VALID,915.021,VALID,0,INVALID,127.319,VALID,134.194,VALID,20.3643,VALID,13,VALID,0,
2017-02-20, 23:02:04,VALID,915.034,VALID,0,INVALID,127.136,VALID,135.161,VALID,20.4618,VALID,338,VALID,0,
2017-02-20, 23:03:04,VALID,915.02,VALID,0,INVALID,127.113,VALID,133.442,VALID,20.5009,VALID,344,VALID,0.728906,
2017-02-20, 23:04:04,VALID,915.026,VALID,0,INVALID,127.311,VALID,135.268,VALID,20.4618,VALID,351,VALID,0.798828,
2017-02-20, 23:05:04,VALID,915.038,VALID,0,INVALID,127.281,VALID,127.425,VALID,20.4829,VALID,14,VALID,0,
2017-02-20, 23:06:04,VALID,914.988,VALID,0,INVALID,126.694,VALID,130.434,VALID,20.6764,VALID,14,VALID,0,
2017-02-20, 23:07:04,VALID,915.021,VALID,0,INVALID,126.579,VALID,126.888,VALID,20.7739,VALID,358,VALID,0,
2017-02-20, 23:08:04,VALID,915.045,VALID,0,INVALID,126.572,VALID,128.714,VALID,20.8324,VALID,7,VALID,0,
2017-02-20, 23:09:04,VALID,915.053,VALID,0,INVALID,126.434,VALID,133.657,VALID,20.9511,VALID,297,VALID,0,
2017-02-20, 23:10:04,VALID,915.059,VALID,0,INVALID,126.716,VALID,133.12,VALID,20.795,VALID,262,VALID,0,
2017-02-20, 23:11:04,VALID,915.052,VALID,0,INVALID,126.816,VALID,130.219,VALID,20.7934,VALID,262,VALID,0,
2017-02-20, 23:12:04,VALID,915.076,VALID,0,INVALID,126.594,VALID,130.863,VALID,20.9105,VALID,262,VALID,0,
2017-02-20, 23:13:04,VALID,915.092,VALID,0,INVALID,126.434,VALID,130.326,VALID,20.9885,VALID,262,VALID,0,
2017-02-20, 23:14:04,VALID,915.09,VALID,0,INVALID,126.419,VALID,129.252,VALID,20.9885,VALID,262,VALID,0,
2017-02-20, 23:15:04,VALID,915.094,VALID,0,INVALID,126.594,VALID,128.392,VALID,20.93,VALID,262,VALID,0,
2017-02-20, 23:16:04,VALID,915.101,VALID,0,INVALID,126.633,VALID,127.21,VALID,20.891,VALID,262,VALID,0,
2017-02-20, 23:17:04,VALID,915.093,VALID,0,INVALID,126.526,VALID,125.276,VALID,20.9511,VALID,262,VALID,0,
2017-02-20, 23:18:04,VALID,915.089,VALID,0,INVALID,126.541,VALID,119.152,VALID,20.9105,VALID,262,VALID,0,
2017-02-20, 23:19:04,VALID,915.072,VALID,0,INVALID,126.472,VALID,123.128,VALID,20.9706,VALID,262,VALID,0,
2017-02-20, 23:20:04,VALID,915.067,VALID,0,INVALID,126.305,VALID,117.648,VALID,21.0681,INVALID,360,VALID,0,
2017-02-20, 23:21:04,VALID,915.041,VALID,0,INVALID,126.579,VALID,113.028,VALID,20.9901,VALID,340,VALID,0,
2017-02-20, 23:22:04,VALID,915.02,VALID,0,INVALID,126.854,VALID,113.028,VALID,20.873,VALID,316,VALID,0,
2017-02-20, 23:25:04,VALID,914.99,VALID,0,INVALID,126.503,VALID,105.507,VALID,20.9511,VALID,317,VALID,0,
2017-02-20, 23:26:04,VALID,915,VALID,0,INVALID,126.61,VALID,107.119,VALID,20.93,VALID,351,VALID,0,
